Flag for U.S.A. Weather past 2 weeks in Bakersfield, California, U.S.A.

Now
75 °F

Sunny.


Feels Like: 77 °F
Forecast: 59 / 82 °F
Wind: 8 mph from Northwest

Location: Meadows Field

Current Time: May 23, 2015 at 8:43:02 PM

Latest Report: May 23, 2015 at 7:54 PM


Visibility: 10 mi

Pressure: 29.89 "Hg

Humidity: 36%

Dew point: 46 °F

Location of BakersfieldLocation

Historic Weather in Bakersfield — Graph

°F

Bakersfield temperature yesterday

Maximum temperature yesterday: 68 °F (at 4:54 PM)
Minimum temperature yesterday: 55 °F (at 6:54 AM)
Average temperature yesterday: 62 °F

Past Weeks' High & Low Weather Summary

 TemperatureHumidityPressure
High88 °F (May 10, 4:54 PM)90% (May 22, 6:54 AM)30.07 "Hg (May 22, 6:54 AM)
Low51 °F (May 16, 5:54 AM)13% (May 13, 3:54 PM)29.73 "Hg (May 11, 6:54 PM)
Average66 °F45%29.92 "Hg
* Reported May 8 6:54 PM — May 23 6:54 PM, Bakersfield, Weather by CustomWeather, © 2015

Note: Actual official high and low records may vary slightly from our data, if they occured in-between our weather recording intervals... More about our weather records

Advertising

Bakersfield weather history for previous 24 hours

 ConditionsComfort  
Time TempWeatherWind HumidityBarometerVisibility
6:54 PM
Sat, May 23
79 °FSunny.8 mph27%29.88 "Hg10 mi
5:54 PM80 °FSunny.8 mph28%29.89 "Hg10 mi
4:54 PM79 °FSunny.10 mph30%29.91 "Hg10 mi
3:54 PM77 °FSunny.5 mph32%29.94 "Hg10 mi
2:54 PM78 °FSunny.7 mph35%29.97 "Hg10 mi
1:54 PM76 °FPassing clouds.7 mph37%29.99 "Hg10 mi
12:54 PM74 °FSunny.6 mph41%30.01 "Hg10 mi
11:54 AM71 °FSunny.N/A47%30.03 "Hg10 mi
10:54 AM68 °FSunny.5 mph51%30.05 "Hg10 mi
9:54 AM66 °FSunny.8 mph54%30.05 "Hg10 mi
8:54 AM64 °FSunny.9 mph58%30.06 "Hg10 mi
7:54 AM62 °FSunny.12 mph62%30.05 "Hg10 mi
6:54 AM60 °FSunny.8 mph62%30.04 "Hg10 mi
5:54 AM59 °FPassing clouds.8 mph67%30.03 "Hg10 mi
4:54 AM59 °FClear.7 mph67%30.02 "Hg10 mi
3:54 AM61 °FPassing clouds.5 mph62%30.01 "Hg10 mi
2:54 AM63 °FOvercast.6 mph58%30.01 "Hg10 mi
1:54 AM64 °FOvercast.No wind68%30.01 "Hg10 mi
12:54 AM65 °FOvercast.5 mph61%30.02 "Hg10 mi
11:54 PM
Fri, May 22
65 °FMostly cloudy.3 mph63%30.02 "Hg10 mi
10:54 PM66 °FMostly cloudy.6 mph61%30.02 "Hg10 mi
9:54 PM66 °FOvercast.6 mph61%30.01 "Hg10 mi
8:54 PM66 °FOvercast.3 mph61%29.98 "Hg10 mi
Weather by CustomWeather, © 2015

See weather overviewHow to use our weather pages